#datetime,building,power
2023-07-19T00:00:00,sdl,4.42
2023-07-19T00:01:00,sdl,4.38
2023-07-19T00:02:00,sdl,4.33
2023-07-19T00:03:00,sdl,4.50
2023-07-19T00:04:00,sdl,4.35
2023-07-19T00:05:00,sdl,4.08
2023-07-19T00:06:00,sdl,4.11
2023-07-19T00:07:00,sdl,4.13
2023-07-19T00:08:00,sdl,4.05
2023-07-19T00:09:00,sdl,6.30
2023-07-19T00:10:00,sdl,6.37
2023-07-19T00:11:00,sdl,6.34
2023-07-19T00:12:00,sdl,6.24
2023-07-19T00:13:00,sdl,6.44
2023-07-19T00:14:00,sdl,6.75
2023-07-19T00:15:00,sdl,6.76
2023-07-19T00:16:00,sdl,6.62
2023-07-19T00:17:00,sdl,6.64
2023-07-19T00:18:00,sdl,4.81
2023-07-19T00:19:00,sdl,4.42
2023-07-19T00:20:00,sdl,4.27
2023-07-19T00:21:00,sdl,4.23
2023-07-19T00:22:00,sdl,4.25
2023-07-19T00:23:00,sdl,4.68
2023-07-19T00:24:00,sdl,4.71
2023-07-19T00:25:00,sdl,4.73
2023-07-19T00:26:00,sdl,4.28
2023-07-19T00:27:00,sdl,4.53
2023-07-19T00:28:00,sdl,4.73
2023-07-19T00:29:00,sdl,4.77
2023-07-19T00:30:00,sdl,4.46
2023-07-19T00:31:00,sdl,4.42
2023-07-19T00:32:00,sdl,4.38
2023-07-19T00:33:00,sdl,4.42
2023-07-19T00:34:00,sdl,3.27
2023-07-19T00:35:00,sdl,3.11
2023-07-19T00:36:00,sdl,5.35
2023-07-19T00:37:00,sdl,5.24
2023-07-19T00:38:00,sdl,5.25
2023-07-19T00:39:00,sdl,6.62
2023-07-19T00:40:00,sdl,6.29
2023-07-19T00:41:00,sdl,6.29
2023-07-19T00:42:00,sdl,6.32
2023-07-19T00:43:00,sdl,6.40
2023-07-19T00:44:00,sdl,6.35
2023-07-19T00:45:00,sdl,6.42
2023-07-19T00:46:00,sdl,6.32
2023-07-19T00:47:00,sdl,6.23
2023-07-19T00:48:00,sdl,6.23
2023-07-19T00:49:00,sdl,6.27
2023-07-19T00:50:00,sdl,6.38
2023-07-19T00:51:00,sdl,6.40
2023-07-19T00:52:00,sdl,6.59
2023-07-19T00:53:00,sdl,4.16
2023-07-19T00:54:00,sdl,4.17
2023-07-19T00:55:00,sdl,4.55
2023-07-19T00:56:00,sdl,4.60
2023-07-19T00:57:00,sdl,4.60
2023-07-19T00:58:00,sdl,4.23
2023-07-19T00:59:00,sdl,4.29
2023-07-19T01:00:00,sdl,4.34
2023-07-19T01:01:00,sdl,3.96
2023-07-19T01:02:00,sdl,4.05
2023-07-19T01:03:00,sdl,4.12
2023-07-19T01:04:00,sdl,4.30
2023-07-19T01:05:00,sdl,4.28
2023-07-19T01:06:00,sdl,4.31
2023-07-19T01:07:00,sdl,5.11
2023-07-19T01:08:00,sdl,4.60
2023-07-19T01:09:00,sdl,4.46
2023-07-19T01:10:00,sdl,4.50
2023-07-19T01:11:00,sdl,4.49
2023-07-19T01:12:00,sdl,4.53
2023-07-19T01:13:00,sdl,4.48
2023-07-19T01:14:00,sdl,4.46
2023-07-19T01:15:00,sdl,4.54
2023-07-19T01:16:00,sdl,4.37
2023-07-19T01:17:00,sdl,4.64
2023-07-19T01:18:00,sdl,4.57
2023-07-19T01:19:00,sdl,4.65
2023-07-19T01:20:00,sdl,4.53
2023-07-19T01:21:00,sdl,4.61
2023-07-19T01:22:00,sdl,4.56
2023-07-19T01:23:00,sdl,4.58
2023-07-19T01:24:00,sdl,6.78
2023-07-19T01:25:00,sdl,6.91
2023-07-19T01:26:00,sdl,6.74
2023-07-19T01:27:00,sdl,6.82
2023-07-19T01:28:00,sdl,6.70
2023-07-19T01:29:00,sdl,6.86
2023-07-19T01:30:00,sdl,6.87
2023-07-19T01:31:00,sdl,6.85
2023-07-19T01:32:00,sdl,6.97
2023-07-19T01:33:00,sdl,7.09
2023-07-19T01:34:00,sdl,7.39
2023-07-19T01:35:00,sdl,7.32
2023-07-19T01:36:00,sdl,7.33
2023-07-19T01:37:00,sdl,7.00
2023-07-19T01:38:00,sdl,7.33
2023-07-19T01:39:00,sdl,4.85
2023-07-19T01:40:00,sdl,4.83
2023-07-19T01:41:00,sdl,4.82
2023-07-19T01:42:00,sdl,4.81
2023-07-19T01:43:00,sdl,4.75
2023-07-19T01:44:00,sdl,4.75
2023-07-19T01:45:00,sdl,3.05
2023-07-19T01:46:00,sdl,3.37
2023-07-19T01:47:00,sdl,2.74
2023-07-19T01:48:00,sdl,2.71
2023-07-19T01:49:00,sdl,2.68
2023-07-19T01:50:00,sdl,3.85
2023-07-19T01:51:00,sdl,4.05
2023-07-19T01:52:00,sdl,4.50
2023-07-19T01:53:00,sdl,4.52
2023-07-19T01:54:00,sdl,4.70
2023-07-19T01:55:00,sdl,4.58
2023-07-19T01:56:00,sdl,4.22
2023-07-19T01:57:00,sdl,4.27
2023-07-19T01:58:00,sdl,4.17
2023-07-19T01:59:00,sdl,6.24
2023-07-19T02:00:00,sdl,6.22
2023-07-19T02:01:00,sdl,8.16
2023-07-19T02:02:00,sdl,7.80
2023-07-19T02:03:00,sdl,8.08
2023-07-19T02:04:00,sdl,7.91
2023-07-19T02:05:00,sdl,8.35
2023-07-19T02:06:00,sdl,12.89
2023-07-19T02:07:00,sdl,12.86
2023-07-19T02:08:00,sdl,10.54
2023-07-19T02:09:00,sdl,10.66
2023-07-19T02:10:00,sdl,13.04
2023-07-19T02:11:00,sdl,12.97
2023-07-19T02:12:00,sdl,13.03
2023-07-19T02:13:00,sdl,13.10
2023-07-19T02:14:00,sdl,13.19
2023-07-19T02:15:00,sdl,13.52
2023-07-19T02:16:00,sdl,13.95
2023-07-19T02:17:00,sdl,13.93
2023-07-19T02:18:00,sdl,14.13
2023-07-19T02:19:00,sdl,14.30
2023-07-19T02:20:00,sdl,14.52
2023-07-19T02:21:00,sdl,14.71
2023-07-19T02:22:00,sdl,14.57
2023-07-19T02:23:00,sdl,14.84
2023-07-19T02:24:00,sdl,14.86
2023-07-19T02:25:00,sdl,14.94
2023-07-19T02:26:00,sdl,17.26
2023-07-19T02:27:00,sdl,17.21
2023-07-19T02:28:00,sdl,17.11
2023-07-19T02:29:00,sdl,17.05
2023-07-19T02:30:00,sdl,17.22
2023-07-19T02:31:00,sdl,16.76
2023-07-19T02:32:00,sdl,16.84
2023-07-19T02:33:00,sdl,16.80
2023-07-19T02:34:00,sdl,16.79
2023-07-19T02:35:00,sdl,16.75
2023-07-19T02:36:00,sdl,16.76
2023-07-19T02:37:00,sdl,16.96
2023-07-19T02:38:00,sdl,17.05
2023-07-19T02:39:00,sdl,17.10
2023-07-19T02:40:00,sdl,16.98
2023-07-19T02:41:00,sdl,17.03
2023-07-19T02:42:00,sdl,17.48
2023-07-19T02:43:00,sdl,15.19
2023-07-19T02:44:00,sdl,15.33
2023-07-19T02:45:00,sdl,14.73
2023-07-19T02:46:00,sdl,15.17
2023-07-19T02:47:00,sdl,15.39
2023-07-19T02:48:00,sdl,15.15
2023-07-19T02:49:00,sdl,14.94
2023-07-19T02:50:00,sdl,14.95
2023-07-19T02:51:00,sdl,15.45
2023-07-19T02:52:00,sdl,14.84
2023-07-19T02:53:00,sdl,15.34
2023-07-19T02:54:00,sdl,14.77
2023-07-19T02:55:00,sdl,14.85
2023-07-19T02:56:00,sdl,14.89
2023-07-19T02:57:00,sdl,14.84
2023-07-19T02:58:00,sdl,14.53
2023-07-19T02:59:00,sdl,14.45
2023-07-19T03:00:00,sdl,14.48
2023-07-19T03:01:00,sdl,14.35
2023-07-19T03:02:00,sdl,14.23
2023-07-19T03:03:00,sdl,14.05
2023-07-19T03:04:00,sdl,14.15
2023-07-19T03:05:00,sdl,11.05
2023-07-19T03:06:00,sdl,10.94
2023-07-19T03:07:00,sdl,10.78
2023-07-19T03:08:00,sdl,10.88
2023-07-19T03:09:00,sdl,10.83
2023-07-19T03:10:00,sdl,11.87
2023-07-19T03:11:00,sdl,12.20
2023-07-19T03:12:00,sdl,11.86
2023-07-19T03:13:00,sdl,12.14
2023-07-19T03:14:00,sdl,14.35
2023-07-19T03:15:00,sdl,16.36
2023-07-19T03:16:00,sdl,16.36
2023-07-19T03:17:00,sdl,16.43
2023-07-19T03:18:00,sdl,16.18
2023-07-19T03:19:00,sdl,16.23
2023-07-19T03:20:00,sdl,16.32
2023-07-19T03:21:00,sdl,14.25
2023-07-19T03:22:00,sdl,14.11
2023-07-19T03:23:00,sdl,14.36
2023-07-19T03:24:00,sdl,14.13
2023-07-19T03:25:00,sdl,14.19
2023-07-19T03:26:00,sdl,14.22
2023-07-19T03:27:00,sdl,14.49
2023-07-19T03:28:00,sdl,14.33
2023-07-19T03:29:00,sdl,11.99
2023-07-19T03:30:00,sdl,14.25
2023-07-19T03:31:00,sdl,14.22
2023-07-19T03:32:00,sdl,14.28
2023-07-19T03:33:00,sdl,14.33
2023-07-19T03:34:00,sdl,14.20
2023-07-19T03:35:00,sdl,12.29
2023-07-19T03:36:00,sdl,12.01
2023-07-19T03:37:00,sdl,11.91
2023-07-19T03:38:00,sdl,12.33
2023-07-19T03:39:00,sdl,12.16
2023-07-19T03:40:00,sdl,8.10
2023-07-19T03:41:00,sdl,3.90
2023-07-19T03:42:00,sdl,2.59
2023-07-19T03:43:00,sdl,3.28
2023-07-19T03:44:00,sdl,2.70
2023-07-19T03:45:00,sdl,2.68
2023-07-19T03:46:00,sdl,2.75
2023-07-19T03:47:00,sdl,3.80
2023-07-19T03:48:00,sdl,4.27
2023-07-19T03:49:00,sdl,4.84
2023-07-19T03:50:00,sdl,7.02
2023-07-19T03:51:00,sdl,6.98
2023-07-19T03:52:00,sdl,7.09
2023-07-19T03:53:00,sdl,7.25
2023-07-19T03:54:00,sdl,7.15
2023-07-19T03:55:00,sdl,7.17
2023-07-19T03:56:00,sdl,7.19
2023-07-19T03:57:00,sdl,7.18
2023-07-19T03:58:00,sdl,7.05
2023-07-19T03:59:00,sdl,6.88
2023-07-19T04:00:00,sdl,4.71
2023-07-19T04:01:00,sdl,4.96
2023-07-19T04:02:00,sdl,4.91
2023-07-19T04:03:00,sdl,5.00
2023-07-19T04:04:00,sdl,4.78
2023-07-19T04:05:00,sdl,4.67
2023-07-19T04:06:00,sdl,4.56
2023-07-19T04:07:00,sdl,4.30
2023-07-19T04:08:00,sdl,4.19
2023-07-19T04:09:00,sdl,4.21
2023-07-19T04:10:00,sdl,4.17
2023-07-19T04:11:00,sdl,4.04
2023-07-19T04:12:00,sdl,2.92
2023-07-19T04:13:00,sdl,2.92
2023-07-19T04:14:00,sdl,2.96
2023-07-19T04:15:00,sdl,2.47
2023-07-19T04:16:00,sdl,2.51
2023-07-19T04:17:00,sdl,4.70
2023-07-19T04:18:00,sdl,5.76
2023-07-19T04:19:00,sdl,5.81
2023-07-19T04:20:00,sdl,6.04
2023-07-19T04:21:00,sdl,6.17
2023-07-19T04:22:00,sdl,5.87
2023-07-19T04:23:00,sdl,5.88
2023-07-19T04:24:00,sdl,5.78
2023-07-19T04:25:00,sdl,5.95
2023-07-19T04:26:00,sdl,5.95
2023-07-19T04:27:00,sdl,5.95
2023-07-19T04:28:00,sdl,5.90
2023-07-19T04:29:00,sdl,5.95
2023-07-19T04:30:00,sdl,5.97
2023-07-19T04:31:00,sdl,5.95
2023-07-19T04:32:00,sdl,6.03
2023-07-19T04:33:00,sdl,3.98
2023-07-19T04:34:00,sdl,4.27
2023-07-19T04:35:00,sdl,3.84
2023-07-19T04:36:00,sdl,4.96
2023-07-19T04:37:00,sdl,4.49
2023-07-19T04:38:00,sdl,4.63
2023-07-19T04:39:00,sdl,4.68
2023-07-19T04:40:00,sdl,3.73
2023-07-19T04:41:00,sdl,3.52
2023-07-19T04:42:00,sdl,3.50
2023-07-19T04:43:00,sdl,2.76
2023-07-19T04:44:00,sdl,2.71
2023-07-19T04:45:00,sdl,3.47
2023-07-19T04:46:00,sdl,3.97
2023-07-19T04:47:00,sdl,3.83
2023-07-19T04:48:00,sdl,4.73
2023-07-19T04:49:00,sdl,4.33
2023-07-19T04:50:00,sdl,3.96
2023-07-19T04:51:00,sdl,3.84
2023-07-19T04:52:00,sdl,3.86
2023-07-19T04:53:00,sdl,3.97
2023-07-19T04:54:00,sdl,3.93
2023-07-19T04:55:00,sdl,3.87
2023-07-19T04:56:00,sdl,4.49
2023-07-19T04:57:00,sdl,3.86
2023-07-19T04:58:00,sdl,3.88
2023-07-19T04:59:00,sdl,5.32
2023-07-19T05:00:00,sdl,5.74
2023-07-19T05:01:00,sdl,6.17
2023-07-19T05:02:00,sdl,5.81
2023-07-19T05:03:00,sdl,5.85
2023-07-19T05:04:00,sdl,10.37
2023-07-19T05:05:00,sdl,10.54
2023-07-19T05:06:00,sdl,12.61
2023-07-19T05:07:00,sdl,11.71
2023-07-19T05:08:00,sdl,14.20
2023-07-19T05:09:00,sdl,14.25
2023-07-19T05:10:00,sdl,14.58
2023-07-19T05:11:00,sdl,14.77
2023-07-19T05:12:00,sdl,16.00
2023-07-19T05:13:00,sdl,16.07
2023-07-19T05:14:00,sdl,16.16
2023-07-19T05:15:00,sdl,16.75
2023-07-19T05:16:00,sdl,16.22
2023-07-19T05:17:00,sdl,16.35
2023-07-19T05:18:00,sdl,16.91
2023-07-19T05:19:00,sdl,16.97
2023-07-19T05:20:00,sdl,16.95
2023-07-19T05:21:00,sdl,14.56
2023-07-19T05:22:00,sdl,14.72
2023-07-19T05:23:00,sdl,14.75
2023-07-19T05:24:00,sdl,14.60
2023-07-19T05:25:00,sdl,14.58
2023-07-19T05:26:00,sdl,14.53
2023-07-19T05:27:00,sdl,14.31
2023-07-19T05:28:00,sdl,14.41
2023-07-19T05:29:00,sdl,14.48
2023-07-19T05:30:00,sdl,14.22
2023-07-19T05:31:00,sdl,14.89
2023-07-19T05:32:00,sdl,14.26
2023-07-19T05:33:00,sdl,14.31
2023-07-19T05:34:00,sdl,14.27
2023-07-19T05:35:00,sdl,14.23
2023-07-19T05:36:00,sdl,14.17
2023-07-19T05:37:00,sdl,14.30
2023-07-19T05:38:00,sdl,14.54
2023-07-19T05:39:00,sdl,14.32
2023-07-19T05:40:00,sdl,13.41
2023-07-19T05:41:00,sdl,13.32
2023-07-19T05:42:00,sdl,15.66
2023-07-19T05:43:00,sdl,13.35
2023-07-19T05:44:00,sdl,12.21
2023-07-19T05:45:00,sdl,12.10
2023-07-19T05:46:00,sdl,12.94
2023-07-19T05:47:00,sdl,13.28
2023-07-19T05:48:00,sdl,13.02
2023-07-19T05:49:00,sdl,12.50
2023-07-19T05:50:00,sdl,13.85
2023-07-19T05:51:00,sdl,12.73
2023-07-19T05:52:00,sdl,12.59
2023-07-19T05:53:00,sdl,12.63
2023-07-19T05:54:00,sdl,14.02
2023-07-19T05:55:00,sdl,12.88
2023-07-19T05:56:00,sdl,12.76
2023-07-19T05:57:00,sdl,12.75
2023-07-19T05:58:00,sdl,12.70
2023-07-19T05:59:00,sdl,12.97
2023-07-19T06:00:00,sdl,12.94
2023-07-19T06:01:00,sdl,13.19
2023-07-19T06:02:00,sdl,13.11
2023-07-19T06:03:00,sdl,10.88
2023-07-19T06:04:00,sdl,10.73
2023-07-19T06:05:00,sdl,10.71
2023-07-19T06:06:00,sdl,10.62
2023-07-19T06:07:00,sdl,11.57
2023-07-19T06:08:00,sdl,11.86
2023-07-19T06:09:00,sdl,13.83
2023-07-19T06:10:00,sdl,15.60
2023-07-19T06:11:00,sdl,15.68
2023-07-19T06:12:00,sdl,17.12
2023-07-19T06:13:00,sdl,17.54
2023-07-19T06:14:00,sdl,17.34
2023-07-19T06:15:00,sdl,17.24
2023-07-19T06:16:00,sdl,17.68
2023-07-19T06:17:00,sdl,17.59
2023-07-19T06:18:00,sdl,17.30
2023-07-19T06:19:00,sdl,15.02
2023-07-19T06:20:00,sdl,15.07
2023-07-19T06:21:00,sdl,14.97
2023-07-19T06:22:00,sdl,14.97
2023-07-19T06:23:00,sdl,14.52
2023-07-19T06:24:00,sdl,8.55
2023-07-19T06:25:00,sdl,7.22
2023-07-19T06:26:00,sdl,7.13
2023-07-19T06:27:00,sdl,5.14
2023-07-19T06:28:00,sdl,3.78
2023-07-19T06:29:00,sdl,3.77
2023-07-19T06:30:00,sdl,3.73
2023-07-19T06:31:00,sdl,6.34
2023-07-19T06:32:00,sdl,6.30
2023-07-19T06:33:00,sdl,6.96
2023-07-19T06:34:00,sdl,7.24
2023-07-19T06:35:00,sdl,7.12
2023-07-19T06:36:00,sdl,7.33
2023-07-19T06:37:00,sdl,7.15
2023-07-19T06:38:00,sdl,7.23
2023-07-19T06:39:00,sdl,7.35
2023-07-19T06:40:00,sdl,6.41
2023-07-19T06:41:00,sdl,5.96
2023-07-19T06:42:00,sdl,6.03
2023-07-19T06:43:00,sdl,6.18
2023-07-19T06:44:00,sdl,6.15
2023-07-19T06:45:00,sdl,6.05
2023-07-19T06:46:00,sdl,6.14
2023-07-19T06:47:00,sdl,3.61
2023-07-19T06:48:00,sdl,2.47
2023-07-19T06:49:00,sdl,2.31
2023-07-19T06:50:00,sdl,2.68
2023-07-19T06:51:00,sdl,2.42
2023-07-19T06:52:00,sdl,2.10
2023-07-19T06:53:00,sdl,3.76
2023-07-19T06:54:00,sdl,5.07
2023-07-19T06:55:00,sdl,4.52
2023-07-19T06:56:00,sdl,5.02
2023-07-19T06:57:00,sdl,5.39
2023-07-19T06:58:00,sdl,5.54
2023-07-19T06:59:00,sdl,13.05
2023-07-19T07:00:00,sdl,12.77
2023-07-19T07:01:00,sdl,12.68
2023-07-19T07:02:00,sdl,12.81
2023-07-19T07:03:00,sdl,13.11
2023-07-19T07:04:00,sdl,15.57
2023-07-19T07:05:00,sdl,15.64
2023-07-19T07:06:00,sdl,15.35
2023-07-19T07:07:00,sdl,15.65
2023-07-19T07:08:00,sdl,15.62
2023-07-19T07:09:00,sdl,14.70
2023-07-19T07:10:00,sdl,15.04
2023-07-19T07:11:00,sdl,14.38
2023-07-19T07:12:00,sdl,13.61
2023-07-19T07:13:00,sdl,13.16
2023-07-19T07:14:00,sdl,12.83
2023-07-19T07:15:00,sdl,13.07
2023-07-19T07:16:00,sdl,14.36
2023-07-19T07:17:00,sdl,13.39
2023-07-19T07:18:00,sdl,14.17
2023-07-19T07:19:00,sdl,13.53
2023-07-19T07:20:00,sdl,13.84
2023-07-19T07:21:00,sdl,14.07
2023-07-19T07:22:00,sdl,13.82
2023-07-19T07:23:00,sdl,15.04
2023-07-19T07:24:00,sdl,15.28
2023-07-19T07:25:00,sdl,15.26
2023-07-19T07:26:00,sdl,15.13
2023-07-19T07:27:00,sdl,20.13
2023-07-19T07:28:00,sdl,15.07
2023-07-19T07:29:00,sdl,15.13
2023-07-19T07:30:00,sdl,14.49
2023-07-19T07:31:00,sdl,15.51
2023-07-19T07:32:00,sdl,15.28
2023-07-19T07:33:00,sdl,15.22
2023-07-19T07:34:00,sdl,15.48
2023-07-19T07:35:00,sdl,14.89
2023-07-19T07:36:00,sdl,15.32
2023-07-19T07:37:00,sdl,14.30
2023-07-19T07:38:00,sdl,14.25
2023-07-19T07:39:00,sdl,14.29
2023-07-19T07:40:00,sdl,14.68
2023-07-19T07:41:00,sdl,15.30
2023-07-19T07:42:00,sdl,15.46
2023-07-19T07:43:00,sdl,15.41
2023-07-19T07:44:00,sdl,18.64
2023-07-19T07:45:00,sdl,19.07
2023-07-19T07:46:00,sdl,21.12
2023-07-19T07:47:00,sdl,21.55
2023-07-19T07:48:00,sdl,18.41
2023-07-19T07:49:00,sdl,19.30
2023-07-19T07:50:00,sdl,19.52
2023-07-19T07:51:00,sdl,16.89
2023-07-19T07:52:00,sdl,17.12
2023-07-19T07:53:00,sdl,17.42
2023-07-19T07:54:00,sdl,16.95
2023-07-19T07:55:00,sdl,17.40
2023-07-19T07:56:00,sdl,13.34
2023-07-19T07:57:00,sdl,13.86
2023-07-19T07:58:00,sdl,11.98
2023-07-19T07:59:00,sdl,11.77
2023-07-19T08:00:00,sdl,11.09
2023-07-19T08:01:00,sdl,9.95
2023-07-19T08:02:00,sdl,9.63
2023-07-19T08:03:00,sdl,11.99
2023-07-19T08:04:00,sdl,12.32
2023-07-19T08:05:00,sdl,11.71
2023-07-19T08:06:00,sdl,11.84
2023-07-19T08:07:00,sdl,11.79
2023-07-19T08:08:00,sdl,12.18
2023-07-19T08:09:00,sdl,12.10
2023-07-19T08:10:00,sdl,12.34
2023-07-19T08:11:00,sdl,11.58
2023-07-19T08:12:00,sdl,11.30
2023-07-19T08:13:00,sdl,16.04
2023-07-19T08:14:00,sdl,16.49
2023-07-19T08:15:00,sdl,17.35
2023-07-19T08:16:00,sdl,17.21
2023-07-19T08:17:00,sdl,17.29
2023-07-19T08:18:00,sdl,16.47
2023-07-19T08:19:00,sdl,14.42
2023-07-19T08:20:00,sdl,14.53
2023-07-19T08:21:00,sdl,14.71
2023-07-19T08:22:00,sdl,14.62
2023-07-19T08:23:00,sdl,14.28
2023-07-19T08:24:00,sdl,15.37
2023-07-19T08:25:00,sdl,16.39
2023-07-19T08:26:00,sdl,15.82
2023-07-19T08:27:00,sdl,15.82
2023-07-19T08:28:00,sdl,16.68
2023-07-19T08:29:00,sdl,17.20
2023-07-19T08:30:00,sdl,17.21
2023-07-19T08:31:00,sdl,17.41
2023-07-19T08:32:00,sdl,21.44
2023-07-19T08:33:00,sdl,22.32
2023-07-19T08:34:00,sdl,23.48
2023-07-19T08:35:00,sdl,23.32
2023-07-19T08:36:00,sdl,23.67
2023-07-19T08:37:00,sdl,25.27
2023-07-19T08:38:00,sdl,25.41
2023-07-19T08:39:00,sdl,25.41
2023-07-19T08:40:00,sdl,25.37
2023-07-19T08:41:00,sdl,25.59
2023-07-19T08:42:00,sdl,25.37
2023-07-19T08:43:00,sdl,25.30
2023-07-19T08:44:00,sdl,25.50
2023-07-19T08:45:00,sdl,25.56
2023-07-19T08:46:00,sdl,25.36
2023-07-19T08:47:00,sdl,21.63
2023-07-19T08:48:00,sdl,22.16
2023-07-19T08:49:00,sdl,21.72
2023-07-19T08:50:00,sdl,23.64
2023-07-19T08:51:00,sdl,23.63
2023-07-19T08:52:00,sdl,23.45
2023-07-19T08:53:00,sdl,23.16
2023-07-19T08:54:00,sdl,23.23
2023-07-19T08:55:00,sdl,22.96
2023-07-19T08:56:00,sdl,22.05
2023-07-19T08:57:00,sdl,23.14
2023-07-19T08:58:00,sdl,23.30
2023-07-19T08:59:00,sdl,23.59
2023-07-19T09:00:00,sdl,21.95
2023-07-19T09:01:00,sdl,18.48
2023-07-19T09:02:00,sdl,18.17
2023-07-19T09:03:00,sdl,17.47
2023-07-19T09:04:00,sdl,18.06
2023-07-19T09:05:00,sdl,15.70
2023-07-19T09:06:00,sdl,16.17
2023-07-19T09:07:00,sdl,16.45
2023-07-19T09:08:00,sdl,16.24
2023-07-19T09:09:00,sdl,16.28
2023-07-19T09:10:00,sdl,16.35
2023-07-19T09:11:00,sdl,16.71
2023-07-19T09:12:00,sdl,17.27
2023-07-19T09:13:00,sdl,17.19
2023-07-19T09:14:00,sdl,16.92
2023-07-19T09:15:00,sdl,17.04
2023-07-19T09:16:00,sdl,16.94
2023-07-19T09:17:00,sdl,16.72
2023-07-19T09:18:00,sdl,16.59
2023-07-19T09:19:00,sdl,14.97
2023-07-19T09:20:00,sdl,13.99
2023-07-19T09:21:00,sdl,14.45
2023-07-19T09:22:00,sdl,14.27
2023-07-19T09:23:00,sdl,16.50
2023-07-19T09:24:00,sdl,11.77
2023-07-19T09:25:00,sdl,11.79
2023-07-19T09:26:00,sdl,10.78
2023-07-19T09:27:00,sdl,10.38
2023-07-19T09:28:00,sdl,10.34
2023-07-19T09:29:00,sdl,10.35
2023-07-19T09:30:00,sdl,10.33
2023-07-19T09:31:00,sdl,10.28
2023-07-19T09:32:00,sdl,10.24
2023-07-19T09:33:00,sdl,10.17
2023-07-19T09:34:00,sdl,7.77
2023-07-19T09:35:00,sdl,7.79
2023-07-19T09:36:00,sdl,7.35
2023-07-19T09:37:00,sdl,7.69
2023-07-19T09:38:00,sdl,7.75
2023-07-19T09:39:00,sdl,6.24
2023-07-19T09:40:00,sdl,6.21
2023-07-19T09:41:00,sdl,5.84
2023-07-19T09:42:00,sdl,5.86
2023-07-19T09:43:00,sdl,5.80
2023-07-19T09:44:00,sdl,5.78
2023-07-19T09:45:00,sdl,5.78
2023-07-19T09:46:00,sdl,6.04
2023-07-19T09:47:00,sdl,5.98
2023-07-19T09:48:00,sdl,6.17
2023-07-19T09:49:00,sdl,6.28
2023-07-19T09:50:00,sdl,7.33
2023-07-19T09:51:00,sdl,9.06
2023-07-19T09:52:00,sdl,9.11
2023-07-19T09:53:00,sdl,9.12
2023-07-19T09:54:00,sdl,8.67
2023-07-19T09:55:00,sdl,8.64
2023-07-19T09:56:00,sdl,8.71
2023-07-19T09:57:00,sdl,9.41
2023-07-19T09:58:00,sdl,9.37
2023-07-19T09:59:00,sdl,10.35
2023-07-19T10:00:00,sdl,9.78
2023-07-19T10:01:00,sdl,14.94
2023-07-19T10:02:00,sdl,15.12
2023-07-19T10:03:00,sdl,14.80
2023-07-19T10:04:00,sdl,14.98
2023-07-19T10:05:00,sdl,15.45
2023-07-19T10:06:00,sdl,18.58
2023-07-19T10:07:00,sdl,18.51
2023-07-19T10:08:00,sdl,18.52
2023-07-19T10:09:00,sdl,18.37
2023-07-19T10:10:00,sdl,18.08
2023-07-19T10:11:00,sdl,16.48
2023-07-19T10:12:00,sdl,16.36
2023-07-19T10:13:00,sdl,16.08
2023-07-19T10:14:00,sdl,15.66
2023-07-19T10:15:00,sdl,15.97
2023-07-19T10:16:00,sdl,15.76
2023-07-19T10:17:00,sdl,15.50
2023-07-19T10:18:00,sdl,15.50
2023-07-19T10:19:00,sdl,15.61
2023-07-19T10:20:00,sdl,15.76
2023-07-19T10:21:00,sdl,15.85
2023-07-19T10:22:00,sdl,15.99
2023-07-19T10:23:00,sdl,15.96
2023-07-19T10:24:00,sdl,16.11
2023-07-19T10:25:00,sdl,15.85
2023-07-19T10:26:00,sdl,16.04
2023-07-19T10:27:00,sdl,16.37
2023-07-19T10:28:00,sdl,16.61
2023-07-19T10:29:00,sdl,16.53
2023-07-19T10:30:00,sdl,16.47
2023-07-19T10:31:00,sdl,16.55
2023-07-19T10:32:00,sdl,16.38
2023-07-19T10:33:00,sdl,16.28
2023-07-19T10:34:00,sdl,16.29
2023-07-19T10:35:00,sdl,16.60
2023-07-19T10:36:00,sdl,17.41
2023-07-19T10:37:00,sdl,16.71
2023-07-19T10:38:00,sdl,16.28
2023-07-19T10:39:00,sdl,15.32
2023-07-19T10:40:00,sdl,17.14
2023-07-19T10:41:00,sdl,17.90
2023-07-19T10:42:00,sdl,17.98
2023-07-19T10:43:00,sdl,17.98
2023-07-19T10:44:00,sdl,18.62
2023-07-19T10:45:00,sdl,18.54
2023-07-19T10:46:00,sdl,18.80
2023-07-19T10:47:00,sdl,18.74
2023-07-19T10:48:00,sdl,17.95
2023-07-19T10:49:00,sdl,17.74
2023-07-19T10:50:00,sdl,17.69
2023-07-19T10:51:00,sdl,18.07
2023-07-19T10:52:00,sdl,17.70
2023-07-19T10:53:00,sdl,19.03
2023-07-19T10:54:00,sdl,15.53
2023-07-19T10:55:00,sdl,15.27
2023-07-19T10:56:00,sdl,15.58
2023-07-19T10:57:00,sdl,13.50
2023-07-19T10:58:00,sdl,14.65
2023-07-19T10:59:00,sdl,10.71
2023-07-19T11:00:00,sdl,11.39
2023-07-19T11:01:00,sdl,13.45
2023-07-19T11:02:00,sdl,13.63
2023-07-19T11:03:00,sdl,13.37
2023-07-19T11:04:00,sdl,12.92
2023-07-19T11:05:00,sdl,12.83
2023-07-19T11:06:00,sdl,11.52
2023-07-19T11:07:00,sdl,11.20
2023-07-19T11:08:00,sdl,11.82
2023-07-19T11:09:00,sdl,12.56
2023-07-19T11:10:00,sdl,11.93
2023-07-19T11:11:00,sdl,12.73
2023-07-19T11:12:00,sdl,13.43
2023-07-19T11:13:00,sdl,13.18
2023-07-19T11:14:00,sdl,13.34
2023-07-19T11:15:00,sdl,13.39
2023-07-19T11:16:00,sdl,13.38
2023-07-19T11:17:00,sdl,12.73
2023-07-19T11:18:00,sdl,12.93
2023-07-19T11:19:00,sdl,12.78
2023-07-19T11:20:00,sdl,13.40
2023-07-19T11:21:00,sdl,13.46
2023-07-19T11:22:00,sdl,14.01
2023-07-19T11:23:00,sdl,14.03
2023-07-19T11:24:00,sdl,12.52
2023-07-19T11:25:00,sdl,12.31
2023-07-19T11:26:00,sdl,12.44
2023-07-19T11:27:00,sdl,12.08
2023-07-19T11:28:00,sdl,16.61
2023-07-19T11:29:00,sdl,17.76
2023-07-19T11:30:00,sdl,18.45
2023-07-19T11:31:00,sdl,18.03
2023-07-19T11:32:00,sdl,18.16
2023-07-19T11:33:00,sdl,18.94
2023-07-19T11:34:00,sdl,20.61
2023-07-19T11:35:00,sdl,20.68
2023-07-19T11:36:00,sdl,20.71
2023-07-19T11:37:00,sdl,20.79
2023-07-19T11:38:00,sdl,20.80
2023-07-19T11:39:00,sdl,20.52
2023-07-19T11:40:00,sdl,20.39
2023-07-19T11:41:00,sdl,20.71
2023-07-19T11:42:00,sdl,23.33
2023-07-19T11:43:00,sdl,25.46
2023-07-19T11:44:00,sdl,26.31
2023-07-19T11:45:00,sdl,26.46
2023-07-19T11:46:00,sdl,26.55
2023-07-19T11:47:00,sdl,26.61
2023-07-19T11:48:00,sdl,26.68
2023-07-19T11:49:00,sdl,26.72
2023-07-19T11:50:00,sdl,26.74
2023-07-19T11:51:00,sdl,26.58
2023-07-19T11:52:00,sdl,26.60
2023-07-19T11:53:00,sdl,26.66
2023-07-19T11:54:00,sdl,26.87
2023-07-19T11:55:00,sdl,26.97
2023-07-19T11:56:00,sdl,27.11
2023-07-19T11:57:00,sdl,26.70
2023-07-19T11:58:00,sdl,26.74
2023-07-19T11:59:00,sdl,26.80
2023-07-19T12:00:00,sdl,26.96
2023-07-19T12:01:00,sdl,26.92
2023-07-19T12:02:00,sdl,26.91
2023-07-19T12:03:00,sdl,27.00
2023-07-19T12:04:00,sdl,26.44
2023-07-19T12:05:00,sdl,26.26
2023-07-19T12:06:00,sdl,26.23
2023-07-19T12:07:00,sdl,26.60
2023-07-19T12:08:00,sdl,26.37
2023-07-19T12:09:00,sdl,26.40
2023-07-19T12:10:00,sdl,26.39
2023-07-19T12:11:00,sdl,26.42
2023-07-19T12:12:00,sdl,26.21
2023-07-19T12:13:00,sdl,26.18
2023-07-19T12:14:00,sdl,26.30
2023-07-19T12:15:00,sdl,26.42
2023-07-19T12:16:00,sdl,26.31
2023-07-19T12:17:00,sdl,26.26
2023-07-19T12:18:00,sdl,26.61
2023-07-19T12:19:00,sdl,26.57
2023-07-19T12:20:00,sdl,26.46
2023-07-19T12:21:00,sdl,26.64
2023-07-19T12:22:00,sdl,22.55
2023-07-19T12:23:00,sdl,21.92
2023-07-19T12:24:00,sdl,21.90
2023-07-19T12:25:00,sdl,22.41
2023-07-19T12:26:00,sdl,22.03
2023-07-19T12:27:00,sdl,21.47
2023-07-19T12:28:00,sdl,21.18
2023-07-19T12:29:00,sdl,21.01
2023-07-19T12:30:00,sdl,18.61
2023-07-19T12:31:00,sdl,21.08
2023-07-19T12:32:00,sdl,20.87
2023-07-19T12:33:00,sdl,20.26
2023-07-19T12:34:00,sdl,20.43
2023-07-19T12:35:00,sdl,15.89
2023-07-19T12:36:00,sdl,16.25
2023-07-19T12:37:00,sdl,14.88
2023-07-19T12:38:00,sdl,15.04
2023-07-19T12:39:00,sdl,15.33
2023-07-19T12:40:00,sdl,14.65
2023-07-19T12:41:00,sdl,13.58
2023-07-19T12:42:00,sdl,12.76
2023-07-19T12:43:00,sdl,12.37
2023-07-19T12:44:00,sdl,10.35
2023-07-19T12:45:00,sdl,10.92
2023-07-19T12:46:00,sdl,15.52
2023-07-19T12:47:00,sdl,15.98
2023-07-19T12:48:00,sdl,16.76
2023-07-19T12:49:00,sdl,16.23
2023-07-19T12:50:00,sdl,15.42
2023-07-19T12:51:00,sdl,15.34
2023-07-19T12:52:00,sdl,15.36
2023-07-19T12:53:00,sdl,15.43
2023-07-19T12:54:00,sdl,17.03
2023-07-19T12:55:00,sdl,16.72
2023-07-19T12:56:00,sdl,16.17
2023-07-19T12:57:00,sdl,16.09
2023-07-19T12:58:00,sdl,18.64
2023-07-19T12:59:00,sdl,18.62
2023-07-19T13:00:00,sdl,18.64
2023-07-19T13:01:00,sdl,18.84
2023-07-19T13:02:00,sdl,18.02
2023-07-19T13:03:00,sdl,19.73
2023-07-19T13:04:00,sdl,18.49
2023-07-19T13:05:00,sdl,14.30
2023-07-19T13:06:00,sdl,14.34
2023-07-19T13:07:00,sdl,15.14
2023-07-19T13:08:00,sdl,14.93
2023-07-19T13:09:00,sdl,15.20
2023-07-19T13:10:00,sdl,19.90
2023-07-19T13:11:00,sdl,19.84
2023-07-19T13:12:00,sdl,20.48
2023-07-19T13:13:00,sdl,18.01
2023-07-19T13:14:00,sdl,18.49
2023-07-19T13:15:00,sdl,21.63
2023-07-19T13:16:00,sdl,21.04
2023-07-19T13:17:00,sdl,20.50
2023-07-19T13:18:00,sdl,20.68
2023-07-19T13:19:00,sdl,21.13
2023-07-19T13:20:00,sdl,20.53
2023-07-19T13:21:00,sdl,20.82
2023-07-19T13:22:00,sdl,21.06
2023-07-19T13:23:00,sdl,21.19
2023-07-19T13:24:00,sdl,21.12
2023-07-19T13:25:00,sdl,21.17
2023-07-19T13:26:00,sdl,21.16
2023-07-19T13:27:00,sdl,20.22